2022-098H (53451 NORAD) Tracking and Keplerian Element Data

This shows tracking and keplerian element data for the satellite.

Feedback or suggestion? Click here.




ElementValue
Catalog53451
Name2022-098H
Epoch Orbit722
Epoch Day270.18435938
Epoch Year2022
RAAN5.735
Inclination97.5381
Eccentricity0.0011284
Argument of Perigee102.9355
Mean Anonmoly344.3177
Mean Motion15.09783321
Decay Rate3.966E-05
L11 53451U 22098H 22270.18435938 .00003966 00000+0 24917-3 0 9992
L22 53451 97.5381 5.7350 0011284 102.9355 344.3177 15.09783321 7223

Live tracking and technical data element details for 2022-098H (NORAD 53451). 2022-098H can be tracked NOW for your location showing map with azimuth and elevation plus other details from your city location.

Track the satellite on the map from your city or location and see movement details for azimuth, elevation, latitude, longitude, range, height, and movement on the map or in text.







IsCatalogInMostPopularTable: catalog: 53451, numindb: 3
Update: records affected: 1



GetName: 53451 2022-098H

Hit Count: updated at: Wed, 28 Sep 2022 21:41:37 GMT